Regional Weather Roundup
Issued by NWS

Home | Current Version | Previous Version | Text Only | Print | Product List | Glossary Off
Versions: 1 2 3 4 5 6 7 8 9 10 11 12 13 14 15 16 17 18 19 20 21 22 23 24 25 26 27 28 29 30 31 32 33 34 35 36 37 38 39 40 41 42 43 44 45 46 47 48 49 50

000
ASUS45 KBOU 061607
RWRCO

WEATHER ROUNDUP FOR COLORADO
NATIONAL WEATHER SERVICE DENVER/BOULDER CO
1000 AM MDT WED MAY 06 2015

NOTE: "FAIR" INDICATES FEW OR NO CLOUDS BELOW 12000 FEET WITH NO
SIGNIFICANT WEATHER AND/OR OBSTRUCTIONS TO VISIBILITY.

COZ001>005-013-030-031-061700-
...NORTHWEST COLORADO...

CITY           SKY/WX    TMP DP  RH WIND       PRES   REMARKS
CRAIG          LGT RAIN  48  44  86 W16G22    29.82S
HAYDEN         CLOUDY    46  41  81 W8        29.82S
MEEKER         LGT RAIN  47  44  90 CALM      29.84S
MOUNT WERNER   NOT AVBL
STEAMBOAT SPGS CLOUDY    45  43  94 SW7       29.82S
WALDEN         CLOUDY    43  37  81 NW6       29.84S
$$

COZ006>008-011-061700-
...WEST CENTRAL VALLEYS...

CITY           SKY/WX    TMP DP  RH WIND       PRES   REMARKS
GRAND JUNCTION CLOUDY    56  51  84 CALM      29.81S
MONTROSE       CLOUDY    56  46  69 SE8       29.87S
EAGLE          NOT AVBL
RIFLE          LGT RAIN  48  46  93 E3        29.85R
DELTA          CLOUDY    55  49  78 CALM      29.85S
NUCLA          NOT AVBL
$$

COZ017>023-064>068-061700-
...SOUTHWEST COLORADO...

CITY           SKY/WX    TMP DP  RH WIND       PRES   REMARKS
DURANGO        PTSUNNY   52  45  77 W15       29.94S
CORTEZ         CLOUDY    53  46  77 SW12      29.93S
PAGOSA SPRINGS DRIZZLE   45  44  97 SW13      29.96S
TELLURIDE      LGT RAIN  39  38  97 SE3       30.01S
WOLF CREEK PAS NOT AVBL
$$

COZ009-010-012-014-032>034-037-058>063-061700-
...CENTRAL COLORADO...

CITY           SKY/WX    TMP DP  RH WIND       PRES   REMARKS
ASPEN          LGT RAIN  41  41 100 N3        29.88S
BUENA VISTA    NOT AVBL
COPPER MTN     CLOUDY    34  32  93 W14G20    29.99S WCI  24
BERTHOUD PASS  CLOUDY    28  19  69 NW25G35   29.98R WCI  14
COTTONWOOD PAS PTSUNNY   46  37  71 SE3       29.92S
GUNNISON       PTSUNNY   46  39  76 SW12G20   29.92S
KREMMLING      DRIZZLE   43  36  75 W15       29.86S
LEADVILLE      LGT RAIN  38  34  85 N9        29.91R
MONARCH PASS   CLOUDY    32  30  93 MISG      30.10R
SALIDA         CLOUDY    55  40  59 SW13G21   29.91R
SUNLIGHT       SNOW      34  34 100 CALM      30.00S VSB 1/4
WILKERSON PASS SNOW      32  32 100 W8        29.98R VSB<1/4 WCI  25
$$

COZ069>075-061700-
...SAN LUIS VALLEY/SANGRE DE CRISTO MOUNTAINS...

CITY           SKY/WX    TMP DP  RH WIND       PRES   REMARKS
ALAMOSA        MOSUNNY   54  38  54 VRB3      29.88S
LA VETA PASS   CLOUDY   N/A N/A N/A MISG      29.94R
SAGUACHE       LGT RAIN  46  41  81 CALM      29.90F
$$

COZ035-036-038>040-061700-
...NORTHERN COLORADO FRONT RANGE...

CITY           SKY/WX    TMP DP  RH WIND       PRES   REMARKS
DENVER INTL AP CLOUDY    54  48  80 W7        29.71S
DMNS CITY PARK   N/A     55  48  76 W1        29.71F
AURORA         PTSUNNY   52  50  94 SW1       29.73S
FRONT RANGE AP CLOUDY    54  52  94 W7        29.73S
ERIE MUNI ARPT CLOUDY    55  48  76 CALM      29.71S
BOULDER MUN AP CLOUDY    54  46  76 CALM      29.71S
CENTENNIAL     CLOUDY    52  47  83 CALM      29.73S
BROOMFIELD     CLOUDY    54  48  82 CALM      29.73F
FORT COLLINS   CLOUDY    55  46  71 N5        29.72S
LONGMONT       CLOUDY    60  48  64 CALM      29.72F
$$

COZ041-046-047-076>085-087-088-061700-
...PIKES PEAK/PALMER DIVIDE AND SOUTHERN FOOTHILLS...

CITY           SKY/WX    TMP DP  RH WIND       PRES   REMARKS
COLO. SPRINGS  PTSUNNY   52  48  86 S6        29.77S
A. F. ACADEMY  PTSUNNY   53  49  86 S8        29.75F
ELLICOTT       PTSUNNY  N/A N/A N/A SW8       29.75F
FALCON         PTSUNNY   53  47  82 SW7       29.78F
FORT CARSON    CLOUDY    50  48  93 VRB1      29.75S
LIMON          LGT RAIN  52  49  89 SW7       29.72F
MONUMENT HILL  CLOUDY    52  43  71 W12       29.76R
TRINIDAD       MOSUNNY   62  43  49 SW18      29.76S
$$

COZ042>045-048>051-090-091-061700-
...NORTHEAST COLORADO...

CITY           SKY/WX    TMP DP  RH WIND       PRES   REMARKS
GREELEY ARPT     N/A    N/A N/A N/A MISG        N/A
AKRON          LGT RAIN  53  53 100 W17       29.66S FOG
BURLINGTON     CLOUDY    60  53  77 SW10      29.68F
WRAY           CLOUDY    58  54  87 SE6       29.67S
STERLING       RAIN      55  55 100 N3        29.61S
HOLYOKE        NOT AVBL
FORT MORGAN    CLOUDY    55  52  90 W15G21    29.67S
$$

COZ086-089-092>099-061700-
...SOUTHEAST COLORADO...

CITY           SKY/WX    TMP DP  RH WIND       PRES   REMARKS
PUEBLO         LGT RAIN  53  50  89 SW3       29.73S
LA JUNTA       CLOUDY    57  52  83 NW3       29.71S
LAMAR          LGT RAIN  58  53  84 CALM      29.68F
SPRINGFIELD      N/A     68  45  43 VRB5      29.70F
$$


USA.gov is the U.S. government's official web portal to all federal, state and local government web resources and services.